Regional Weather Roundup
Issued by NWS Jackson, KY

Home | Current Version | Previous Version | Graphics & Text | Print | Product List | Glossary On
Versions: 1 2 3 4 5 6 7 8 9 10 11 12 13 14 15 16 17 18 19 20 21 22 23 24 25 26 27 28 29 30 31 32 33 34 35 36 37 38 39 40 41 42 43 44 45 46 47 48 49 50
000
ASUS43 KJKL 170111
RWRJKL

EAST KENTUCKY HOURLY WEATHER ROUNDUP
NATIONAL WEATHER SERVICE JACKSON KY
900 PM EDT TUE SEP 16 2014

NOTE: "FAIR" INDICATES FEW OR NO CLOUDS BELOW 12,000 FEET WITH
NO SIGNIFICANT WEATHER AND/OR OBSTRUCTIONS TO VISIBILITY.

* THESE REPORTS ARE NOT UNDER NWS QUALITY CONTROL AND MAY NOT
  REPORT WEATHER SUCH AS PRECIPITATION AND FOG.

KYZ079-080-083-085-087-088-110-112-115-119-120-170200
...EASTERN KENTUCKY...

CITY           SKY/WX    TMP DP  RH WIND       PRES   REMARKS
JACKSON        MOCLDY    57  55  93 CALM      30.08S
LONDON         MOCLDY    61  56  83 NE6       30.08R
MONTICELLO*    PTCLDY    61  59  93 CALM      30.08R
MIDDLESBORO*   CLOUDY    66  59  79 CALM      30.06R
HARLAN APT*    CLOUDY    63  57  82 MISG      30.07R
HAZARD APT*    CLOUDY    59  59 100 CALM      30.08
PIKEVILLE APT* CLOUDY    57  57 100 N5        30.09R
BIG SANDY*     PTCLDY    58  57  97 NE3       30.08F
MOREHEAD APT*  CLOUDY    59  55  88 NE5       30.11S
$$

KYZ035-036-041-042-044-050-067-078-099-170200
...CENTRAL KENTUCKY...

CITY           SKY/WX    TMP DP  RH WIND       PRES   REMARKS
MT STERLING*   CLEAR     55  54  94 NE3       30.11R
FLEMING/MASON* CLEAR     54  52  94 N5        30.12R
DANVILLE*      CLOUDY    59  55  88 NE7       30.09R
RICHMOND*      CLOUDY    59  54  82 N5        30.08R
LEXINGTON      CLEAR     58  53  84 NE7       30.09S
FRANKFORT      CLEAR     57  53  86 N3        30.09R
$$

KYZ091>093-OHZ055-061-077-WVZ005-015-034-035-042-170200
...SOUTHERN OHIO/WEST VIRGINIA...

CITY           SKY/WX    TMP DP  RH WIND       PRES   REMARKS
COVINGTON      CLOUDY    59  51  75 CALM      30.11S
COLUMBUS       CLEAR     60  49  66 SW5       30.09S
DAYTON         CLOUDY    59  49  69 N5        30.12S
WILMINGTON     CLOUDY    58  47  66 CALM      30.11S
HUNTINGTON     CLOUDY    60  55  83 N5        30.08R
CHARLESTON     CLOUDY    61  59  93 CALM      30.07R
PINEVILLE*     CLOUDY    63  61  93 MISG      30.12S
BECKLEY        CLOUDY    57  54  89 N6        30.10R
BLUEFIELD      CLOUDY    61  56  83 CALM      30.11R
$$

VAZ002-007-008-TNZ017-027-036-066-071-170200
...SOUTHWEST VIRGINIA/EAST TENNESSEE...

CITY           SKY/WX    TMP DP  RH WIND       PRES   REMARKS
WISE*          CLOUDY    59  59 100 N3        30.11R
JONESVILLE*    MOCLDY    64  61  88 CALM      30.07R
ABINGDON*      CLEAR     65  60  84 CALM      30.06R
BRISTOL        MOCLDY    69  59  70 W5        30.03R
KNOXVILLE      CLOUDY    70  63  78 N8        30.02R
OAK RIDGE      MOCLDY    68  63  84 CALM      30.05R
CROSSVILLE     PTCLDY    63  59  87 CALM      30.08S
NASHVILLE      PTCLDY    66  59  78 N6        30.06R
$$

...KEY TO REMARKS...
VSB - VISIBILITY IN MILES
WCI - WIND CHILL INDEX
HX  - HEAT INDEX

$$



USA.gov is the U.S. government's official web portal to all federal, state and local government web resources and services.